| time (UTC) | temp C | wind direction | speed KPH | gust KPH | rain 1hr cm | rain 24hr cm | rain mn cm | humidity % | barometer mb |
| 20260505200505 | 31 | 241 | 3.2 | 11.3 | 0.00 | 0.00 | 0.00 | 99 | 1010.6 |
| 20260505200001 | 30 | 218 | 8.0 | 17.7 | 0.00 | 0.00 | 0.00 | 99 | 1011.0 |
| 20260505195458 | 31 | 246 | 12.9 | 22.5 | 0.00 | 0.00 | 0.00 | 99 | 1010.9 |
| 20260505194955 | 30 | 247 | 4.8 | 14.5 | 0.00 | 0.00 | 0.00 | 99 | 1011.1 |
| 20260505194452 | 30 | 262 | 4.8 | 16.1 | 0.00 | 0.00 | 0.00 | 99 | 1011.1 |
| 20260505193952 | 30 | 228 | 0.0 | 8.0 | 0.00 | 0.00 | 0.00 | 99 | 1011.2 |
| 20260505193450 | 30 | 236 | 8.0 | 14.5 | 0.00 | 0.00 | 0.00 | 99 | 1010.9 |
| 20260505192947 | 30 | 158 | 6.4 | 8.0 | 0.00 | 0.00 | 0.00 | 99 | 1010.8 |
| 20260505192446 | 30 | 242 | 14.5 | 20.9 | 0.00 | 0.00 | 0.00 | 99 | 1011.0 |
| 20260505191943 | 30 | 250 | 6.4 | 17.7 | 0.00 | 0.00 | 0.00 | 99 | 1010.8 |
| 20260505191442 | 30 | 137 | 6.4 | 14.5 | 0.00 | 0.00 | 0.00 | 99 | 1010.7 |
| 20260505190938 | 29 | 241 | 6.4 | 22.5 | 0.00 | 0.00 | 0.00 | 99 | 1010.9 |
| 20260505190433 | 29 | 233 | 8.0 | 24.1 | 0.00 | 0.00 | 0.00 | 99 | 1011.0 |
| 20260505185929 | 29 | 198 | 3.2 | 22.5 | 0.00 | 0.00 | 0.00 | 99 | 1011.0 |
| 20260505185427 | 28 | 223 | 6.4 | 17.7 | 0.00 | 0.00 | 0.00 | 99 | 1011.0 |
| 20260505184922 | 28 | 204 | 3.2 | 27.4 | 0.00 | 0.00 | 0.00 | 99 | 1011.0 |
| 20260505184420 | 28 | 123 | 0.0 | 9.7 | 0.00 | 0.00 | 0.00 | 99 | 1011.2 |
| 20260505183916 | 28 | 228 | 3.2 | 11.3 | 0.00 | 0.00 | 0.00 | 99 | 1011.3 |
| 20260505183413 | 28 | 217 | 9.7 | 16.1 | 0.00 | 0.00 | 0.00 | 99 | 1011.0 |
| 20260505182910 | 28 | 254 | 11.3 | 17.7 | 0.00 | 0.00 | 0.00 | 99 | 1011.2 |
| 20260505182407 | 28 | 198 | 3.2 | 6.4 | 0.00 | 0.00 | 0.00 | 99 | 1011.0 |
| 20260505181903 | 28 | 180 | 3.2 | 12.9 | 0.00 | 0.00 | 0.00 | 99 | 1011.3 |
| 20260505181401 | 28 | 117 | 1.6 | 22.5 | 0.00 | 0.00 | 0.00 | 99 | 1011.2 |
| 20260505180857 | 28 | 240 | 3.2 | 17.7 | 0.00 | 0.00 | 0.00 | 99 | 1011.4 |
| 20260505180354 | 27 | 209 | 4.8 | 32.2 | 0.00 | 0.00 | 0.00 | 99 | 1011.0 |
| 20260505175850 | 28 | 209 | 8.0 | 14.5 | 0.00 | 0.00 | 0.00 | 99 | 1011.0 |
| 20260505175346 | 28 | 258 | 9.7 | 14.5 | 0.00 | 0.00 | 0.00 | 99 | 1011.1 |
| 20260505174837 | 28 | 237 | 11.3 | 22.5 | 0.00 | 0.00 | 0.00 | 99 | 1011.1 |
| 20260505174335 | 27 | 233 | 4.8 | 16.1 | 0.00 | 0.00 | 0.00 | 99 | 1011.4 |
| 20260505173830 | 27 | 220 | 0.0 | 20.9 | 0.00 | 0.00 | 0.00 | 99 | 1011.1 |
| 20260505173327 | 27 | 148 | 6.4 | 9.7 | 0.00 | 0.00 | 0.00 | 99 | 1011.3 |
| 20260505172825 | 27 | 246 | 4.8 | 17.7 | 0.00 | 0.00 | 0.00 | 99 | 1011.4 |
| 20260505172322 | 27 | 229 | 4.8 | 20.9 | 0.00 | 0.00 | 0.00 | 99 | 1011.4 |
| 20260505171822 | 27 | 196 | 4.8 | 19.3 | 0.00 | 0.00 | 0.00 | 99 | 1011.4 |
| 20260505171319 | 27 | 198 | 4.8 | 14.5 | 0.00 | 0.00 | 0.00 | 99 | 1011.5 |
| 20260505170815 | 26 | 227 | 17.7 | 22.5 | 0.00 | 0.00 | 0.00 | 99 | 1011.5 |
| 20260505170312 | 26 | 24 | 0.0 | 24.1 | 0.00 | 0.00 | 0.00 | 99 | 1011.5 |
| 20260505165808 | 27 | 155 | 4.8 | 14.5 | 0.00 | 0.00 | 0.00 | 99 | 1011.6 |
| 20260505165306 | 27 | 243 | 1.6 | 14.5 | 0.00 | 0.00 | 0.00 | 99 | 1011.6 |
| 20260505164759 | 26 | 188 | 0.0 | 19.3 | 0.00 | 0.00 | 0.00 | 99 | 1011.3 |
| 20260505164256 | 26 | 261 | 4.8 | 12.9 | 0.00 | 0.00 | 0.00 | 99 | 1011.3 |
| 20260505163755 | 26 | 275 | 0.0 | 20.9 | 0.00 | 0.00 | 0.00 | 99 | 1011.5 |
| 20260505163253 | 26 | 195 | 3.2 | 19.3 | 0.00 | 0.00 | 0.00 | 99 | 1011.7 |
| 20260505162750 | 26 | 228 | 8.0 | 25.7 | 0.00 | 0.00 | 0.00 | 99 | 1011.4 |
| 20260505162247 | 26 | 306 | 0.0 | 14.5 | 0.00 | 0.00 | 0.00 | 99 | 1011.3 |
| 20260505161744 | 26 | 120 | 0.0 | 14.5 | 0.00 | 0.00 | 0.00 | 99 | 1011.6 |
| 20260505161241 | 26 | 150 | 3.2 | 12.9 | 0.00 | 0.00 | 0.00 | 99 | 1011.4 |
| 20260505160738 | 26 | 115 | 3.2 | 14.5 | 0.00 | 0.00 | 0.00 | 99 | 1011.1 |
| 20260505160236 | 26 | 243 | 12.9 | 17.7 | 0.00 | 0.00 | 0.00 | 99 | 1011.1 |
| 20260505153215 | 25 | 232 | 16.1 | 24.1 | 0.00 | 0.00 | 0.00 | 99 | 1011.0 |
| 20260505152712 | 25 | 226 | 8.0 | 17.7 | 0.00 | 0.00 | 0.00 | 99 | 1011.2 |
| 20260505152209 | 25 | 180 | 0.0 | 12.9 | 0.00 | 0.00 | 0.00 | 99 | 1011.2 |
| 20260505151703 | 25 | 270 | 1.6 | 19.3 | 0.00 | 0.00 | 0.00 | 99 | 1011.3 |
| 20260505151201 | 25 | 211 | 4.8 | 22.5 | 0.00 | 0.00 | 0.00 | 99 | 1011.6 |
| 20260505150657 | 25 | 253 | 3.2 | 19.3 | 0.00 | 0.00 | 0.00 | 99 | 1011.3 |
| 20260505150155 | 25 | 221 | 6.4 | 20.9 | 0.00 | 0.00 | 0.00 | 99 | 1011.5 |
| 20260505140622 | 23 | 241 | 14.5 | 19.3 | 0.00 | 0.00 | 0.00 | 99 | 1011.6 |
| 20260505140120 | 22 | 135 | 3.2 | 17.7 | 0.00 | 0.00 | 0.00 | 99 | 1011.4 |
| 20260505125036 | 22 | 133 | 0.0 | 4.8 | 0.00 | 0.00 | 0.00 | 99 | 1011.0 |
| 20260505124533 | 22 | 81 | 0.0 | 8.0 | 0.00 | 0.00 | 0.00 | 99 | 1010.9 |
| 20260505124029 | 22 | 172 | 0.0 | 9.7 | 0.00 | 0.00 | 0.00 | 99 | 1011.2 |
| 20260505123525 | 22 | 231 | 4.8 | 16.1 | 0.00 | 0.00 | 0.00 | 99 | 1010.8 |
| 20260505123021 | 22 | 174 | 0.0 | 8.0 | 0.00 | 0.00 | 0.00 | 99 | 1010.7 |
| 20260505122519 | 22 | 257 | 0.0 | 14.5 | 0.00 | 0.00 | 0.00 | 99 | 1010.5 |
| 20260505122016 | 22 | 157 | 6.4 | 11.3 | 0.00 | 0.00 | 0.00 | 99 | 1010.7 |
| 20260505121512 | 21 | 154 | 0.0 | 8.0 | 0.00 | 0.00 | 0.00 | 99 | 1010.7 |
| 20260505121009 | 21 | 259 | 8.0 | 9.7 | 0.00 | 0.00 | 0.00 | 99 | 1010.6 |
| 20260505120506 | 22 | 246 | 0.0 | 11.3 | 0.00 | 0.00 | 0.00 | 99 | 1010.8 |
| 20260505120006 | 22 | 195 | 4.8 | 8.0 | 0.00 | 0.00 | 0.00 | 99 | 1010.6 |
| 20260505115501 | 22 | 220 | 0.0 | 11.3 | 0.00 | 0.00 | 0.00 | 99 | 1010.8 |
| 20260505114959 | 21 | 193 | 4.8 | 20.9 | 0.00 | 0.00 | 0.00 | 99 | 1010.8 |
| 20260505114455 | 21 | 133 | 4.8 | 9.7 | 0.00 | 0.00 | 0.00 | 99 | 1010.5 |
| 20260505113952 | 21 | 240 | 8.0 | 14.5 | 0.00 | 0.00 | 0.00 | 99 | 1010.4 |
| 20260505113449 | 21 | 172 | 9.7 | 9.7 | 0.00 | 0.00 | 0.00 | 99 | 1010.4 |
| 20260505112944 | 21 | 276 | 3.2 | 8.0 | 0.00 | 0.00 | 0.00 | 99 | 1010.4 |
| 20260505112442 | 21 | 117 | 1.6 | 8.0 | 0.00 | 0.00 | 0.00 | 99 | 1010.3 |
| 20260505111938 | 21 | 244 | 6.4 | 14.5 | 0.00 | 0.00 | 0.00 | 99 | 1010.4 |
| 20260505111432 | 21 | 212 | 3.2 | 14.5 | 0.00 | 0.00 | 0.00 | 99 | 1010.5 |
| 20260505110929 | 21 | 194 | 0.0 | 11.3 | 0.00 | 0.00 | 0.00 | 99 | 1010.6 |
| 20260505110426 | 21 | 126 | 0.0 | 12.9 | 0.00 | 0.00 | 0.00 | 99 | 1010.4 |
| 20260505101857 | 21 | 103 | 4.8 | 17.7 | 0.00 | 0.00 | 0.00 | 99 | 1010.4 |
| 20260505101351 | 21 | 157 | 4.8 | 14.5 | 0.00 | 0.00 | 0.00 | 99 | 1010.7 |
| 20260505100848 | 22 | 148 | 3.2 | 12.9 | 0.00 | 0.00 | 0.00 | 99 | 1010.5 |
| 20260505100344 | 22 | 152 | 6.4 | 19.3 | 0.00 | 0.00 | 0.00 | 99 | 1010.4 |
| 20260505095840 | 22 | 184 | 3.2 | 8.0 | 0.00 | 0.00 | 0.00 | 99 | 1010.4 |
| 20260505095338 | 22 | 120 | 1.6 | 22.5 | 0.00 | 0.00 | 0.00 | 99 | 1010.4 |
| 20260505094833 | 22 | 105 | 3.2 | 11.3 | 0.00 | 0.00 | 0.00 | 99 | 1010.6 |
| 20260505094331 | 22 | 212 | 9.7 | 16.1 | 0.00 | 0.00 | 0.00 | 99 | 1010.6 |
| 20260505093826 | 21 | 176 | 4.8 | 8.0 | 0.00 | 0.00 | 0.00 | 99 | 1010.8 |
| 20260505093324 | 21 | 285 | 1.6 | 22.5 | 0.00 | 0.00 | 0.00 | 99 | 1010.5 |
| 20260505092820 | 21 | 168 | 4.8 | 14.5 | 0.00 | 0.00 | 0.00 | 99 | 1010.6 |
| 20260505092319 | 21 | 249 | 0.0 | 9.7 | 0.00 | 0.00 | 0.00 | 99 | 1010.7 |
| 20260505091816 | 21 | 217 | 9.7 | 14.5 | 0.00 | 0.00 | 0.00 | 99 | 1011.0 |
| 20260505091314 | 21 | 195 | 0.0 | 11.3 | 0.00 | 0.00 | 0.00 | 99 | 1011.0 |
| 20260505090812 | 21 | 212 | 3.2 | 12.9 | 0.00 | 0.00 | 0.00 | 99 | 1010.8 |
| 20260505090310 | 21 | 144 | 4.8 | 20.9 | 0.00 | 0.00 | 0.00 | 99 | 1010.6 |
| 20260505085807 | 21 | 190 | 3.2 | 35.4 | 0.00 | 0.00 | 0.00 | 99 | 1010.7 |
| 20260505085305 | 21 | 158 | 6.4 | 9.7 | 0.00 | 0.00 | 0.00 | 99 | 1010.5 |
| 20260505084802 | 21 | 228 | 3.2 | 12.9 | 0.00 | 0.00 | 0.00 | 99 | 1010.6 |
| 20260505084301 | 21 | 157 | 3.2 | 12.9 | 0.00 | 0.00 | 0.00 | 99 | 1010.7 |
| 20260505083757 | 21 | 144 | 6.4 | 19.3 | 0.00 | 0.00 | 0.00 | 99 | 1010.8 |
| 20260505083254 | 21 | 236 | 6.4 | 8.0 | 0.00 | 0.00 | 0.00 | 99 | 1011.0 |
| 20260505082750 | 21 | 219 | 4.8 | 8.0 | 0.00 | 0.00 | 0.00 | 99 | 1010.8 |
| 20260505082248 | 21 | 194 | 3.2 | 8.0 | 0.00 | 0.00 | 0.00 | 99 | 1011.0 |
| 20260505081743 | 21 | 150 | 0.0 | 16.1 | 0.00 | 0.00 | 0.00 | 99 | 1010.9 |
| 20260505081241 | 21 | 173 | 1.6 | 11.3 | 0.00 | 0.00 | 0.00 | 99 | 1010.8 |
| 20260505080738 | 21 | 201 | 4.8 | 16.1 | 0.00 | 0.00 | 0.00 | 99 | 1010.8 |
| 20260505080233 | 21 | 231 | 4.8 | 16.1 | 0.00 | 0.00 | 0.00 | 99 | 1010.7 |
| 20260505075729 | 21 | 155 | 4.8 | 12.9 | 0.00 | 0.00 | 0.00 | 99 | 1011.1 |
| 20260505075226 | 21 | 221 | 6.4 | 6.4 | 0.00 | 0.00 | 0.00 | 99 | 1011.2 |
| 20260505074724 | 21 | 245 | 6.4 | 9.7 | 0.00 | 0.00 | 0.00 | 99 | 1011.2 |
| 20260505074221 | 21 | 189 | 0.0 | 14.5 | 0.00 | 0.00 | 0.00 | 99 | 1011.5 |
| 20260505073718 | 21 | 220 | 3.2 | 11.3 | 0.00 | 0.00 | 0.00 | 99 | 1011.3 |
| 20260505073216 | 21 | 141 | 4.8 | 12.9 | 0.00 | 0.00 | 0.00 | 99 | 1011.4 |
| 20260505072712 | 21 | 144 | 3.2 | 8.0 | 0.00 | 0.00 | 0.00 | 99 | 1011.3 |
| 20260505072208 | 22 | 117 | 3.2 | 14.5 | 0.00 | 0.00 | 0.00 | 99 | 1011.5 |
| 20260505071704 | 22 | 0 | 1.6 | 9.7 | 0.00 | 0.00 | 0.00 | 99 | 1011.9 |
| 20260505071201 | 22 | 167 | 0.0 | 11.3 | 0.00 | 0.00 | 0.00 | 99 | 1011.7 |
| 20260505070659 | 22 | 240 | 9.7 | 11.3 | 0.00 | 0.00 | 0.00 | 99 | 1011.9 |
| 20260505070155 | 22 | 221 | 3.2 | 17.7 | 0.00 | 0.00 | 0.00 | 99 | 1011.8 |
| 20260505065651 | 22 | 143 | 4.8 | 9.7 | 0.00 | 0.00 | 0.00 | 99 | 1011.8 |
| 20260505065148 | 22 | 100 | 6.4 | 20.9 | 0.00 | 0.00 | 0.00 | 99 | 1011.8 |
| 20260505064644 | 22 | 82 | 6.4 | 8.0 | 0.00 | 0.00 | 0.00 | 99 | 1012.0 |
| 20260505064143 | 22 | 195 | 0.0 | 14.5 | 0.00 | 0.00 | 0.00 | 99 | 1011.9 |
| 20260505063640 | 22 | 192 | 6.4 | 11.3 | 0.00 | 0.00 | 0.00 | 99 | 1012.1 |
| 20260505063136 | 22 | 230 | 6.4 | 11.3 | 0.00 | 0.00 | 0.00 | 99 | 1012.0 |
| 20260505062633 | 22 | 243 | 8.0 | 14.5 | 0.00 | 0.00 | 0.00 | 99 | 1012.2 |
| 20260505062130 | 22 | 205 | 6.4 | 14.5 | 0.00 | 0.00 | 0.00 | 99 | 1012.2 |
| 20260505061627 | 22 | 160 | 4.8 | 14.5 | 0.00 | 0.00 | 0.00 | 99 | 1012.0 |
| 20260505061125 | 22 | 81 | 0.0 | 8.0 | 0.00 | 0.00 | 0.00 | 99 | 1012.0 |
| 20260505060622 | 22 | 103 | 0.0 | 12.9 | 0.00 | 0.00 | 0.00 | 99 | 1012.0 |
| 20260505060119 | 22 | 186 | 1.6 | 11.3 | 0.00 | 0.00 | 0.00 | 99 | 1012.0 |
| 20260505055614 | 22 | 222 | 4.8 | 9.7 | 0.00 | 0.00 | 0.00 | 99 | 1012.1 |
| 20260505055111 | 22 | 90 | 1.6 | 9.7 | 0.00 | 0.00 | 0.00 | 99 | 1012.2 |
| 20260505054608 | 22 | 272 | 0.0 | 14.5 | 0.00 | 0.00 | 0.00 | 99 | 1012.4 |
| 20260505054106 | 22 | 196 | 6.4 | 9.7 | 0.00 | 0.00 | 0.00 | 99 | 1012.2 |
| 20260505053603 | 22 | 114 | 0.0 | 16.1 | 0.00 | 0.00 | 0.00 | 99 | 1012.2 |
| 20260505053100 | 22 | 205 | 8.0 | 14.5 | 0.00 | 0.00 | 0.00 | 99 | 1012.2 |
| 20260505052556 | 22 | 123 | 3.2 | 4.8 | 0.00 | 0.00 | 0.00 | 99 | 1012.4 |
| 20260505052054 | 22 | 304 | 3.2 | 11.3 | 0.00 | 0.00 | 0.00 | 99 | 1012.6 |
| 20260505051550 | 22 | 157 | 0.0 | 17.7 | 0.00 | 0.00 | 0.00 | 99 | 1012.3 |
| 20260505050437 | 23 | 225 | 3.2 | 14.5 | 0.00 | 3.38 | 3.38 | 99 | 1012.1 |
| 20260505041405 | 23 | 192 | 1.6 | 12.9 | 0.00 | 3.38 | 3.38 | 99 | 1012.8 |
| 20260505040902 | 23 | 222 | 0.0 | 17.7 | 0.00 | 3.38 | 3.38 | 99 | 1012.8 |
| 20260505040359 | 23 | 120 | 1.6 | 6.4 | 0.00 | 3.38 | 3.38 | 99 | 1012.7 |
| 20260505035856 | 23 | 66 | 0.0 | 11.3 | 0.00 | 3.38 | 3.38 | 99 | 1012.6 |
| 20260505035352 | 23 | 291 | 1.6 | 8.0 | 0.00 | 3.38 | 3.38 | 99 | 1012.5 |
| 20260505034849 | 23 | 151 | 3.2 | 11.3 | 0.00 | 3.38 | 3.38 | 99 | 1012.5 |
| 20260505034346 | 23 | 106 | 3.2 | 9.7 | 0.00 | 3.38 | 3.38 | 99 | 1012.3 |
| 20260505033843 | 23 | 69 | 0.0 | 11.3 | 0.00 | 3.38 | 3.38 | 99 | 1012.4 |
| 20260505033339 | 23 | 162 | 3.2 | 14.5 | 0.00 | 3.38 | 3.38 | 99 | 1012.5 |
| 20260505032838 | 23 | 228 | 0.0 | 4.8 | 0.00 | 3.38 | 3.38 | 99 | 1012.6 |
| 20260505032334 | 23 | 135 | 3.2 | 11.3 | 0.00 | 3.38 | 3.38 | 99 | 1012.6 |
| 20260505031831 | 23 | 245 | 0.0 | 11.3 | 0.00 | 3.38 | 3.38 | 99 | 1012.6 |
| 20260505031328 | 23 | 248 | 0.0 | 9.7 | 0.00 | 3.38 | 3.38 | 99 | 1012.5 |
| 20260505030825 | 23 | 142 | 6.4 | 9.7 | 0.00 | 3.38 | 3.38 | 99 | 1012.8 |
| 20260505030321 | 23 | 127 | 4.8 | 8.0 | 0.00 | 3.38 | 3.38 | 99 | 1012.5 |
| 20260505025816 | 23 | 96 | 3.2 | 11.3 | 0.00 | 3.38 | 3.38 | 99 | 1012.6 |
| 20260505025315 | 23 | 218 | 8.0 | 8.0 | 0.00 | 3.38 | 3.38 | 99 | 1012.8 |
| 20260505024813 | 23 | 132 | 0.0 | 9.7 | 0.00 | 3.38 | 3.38 | 99 | 1012.6 |
| 20260505024310 | 23 | 233 | 0.0 | 19.3 | 0.00 | 3.38 | 3.38 | 99 | 1012.6 |
| 20260505023807 | 23 | 135 | 3.2 | 11.3 | 0.00 | 3.38 | 3.38 | 99 | 1012.4 |
| 20260505023304 | 23 | 74 | 0.0 | 6.4 | 0.00 | 3.38 | 3.38 | 99 | 1012.6 |
| 20260505022801 | 23 | 235 | 3.2 | 12.9 | 0.00 | 3.38 | 3.38 | 99 | 1012.3 |
| 20260505022258 | 23 | 222 | 4.8 | 6.4 | 0.00 | 3.38 | 3.38 | 99 | 1012.4 |
| 20260505021755 | 23 | 203 | 8.0 | 11.3 | 0.00 | 3.38 | 3.38 | 99 | 1012.4 |
| 20260505021252 | 23 | 194 | 0.0 | 12.9 | 0.00 | 3.38 | 3.38 | 99 | 1012.2 |
| 20260505020748 | 23 | 151 | 3.2 | 9.7 | 0.00 | 3.38 | 3.38 | 99 | 1012.1 |
| 20260505020243 | 23 | 45 | 0.0 | 8.0 | 0.00 | 3.38 | 3.38 | 99 | 1012.2 |
| 20260505015740 | 24 | 90 | 1.6 | 12.9 | 0.00 | 3.38 | 3.38 | 99 | 1012.2 |
| 20260505015237 | 23 | 213 | 3.2 | 8.0 | 0.00 | 3.38 | 3.38 | 99 | 1012.3 |
| 20260505014734 | 24 | 270 | 3.2 | 8.0 | 0.00 | 3.38 | 3.38 | 99 | 1012.5 |
| 20260505014232 | 24 | 128 | 4.8 | 12.9 | 0.00 | 3.38 | 3.38 | 99 | 1012.5 |
| 20260505013728 | 24 | 135 | 4.8 | 6.4 | 0.00 | 3.38 | 3.38 | 99 | 1012.3 |
| 20260505013225 | 24 | 188 | 0.0 | 8.0 | 0.00 | 3.38 | 3.38 | 99 | 1012.3 |
| 20260505012724 | 24 | 173 | 1.6 | 11.3 | 0.00 | 3.38 | 3.38 | 99 | 1012.3 |
| 20260505012221 | 24 | 153 | 6.4 | 8.0 | 0.00 | 3.38 | 3.38 | 99 | 1012.2 |
| 20260505011716 | 25 | 234 | 0.0 | 8.0 | 0.00 | 3.38 | 3.38 | 99 | 1012.2 |
| 20260505011214 | 25 | 120 | 1.6 | 14.5 | 0.00 | 3.38 | 3.38 | 99 | 1012.3 |
| 20260505010709 | 25 | 258 | 8.0 | 19.3 | 0.00 | 3.38 | 3.38 | 99 | 1012.3 |
| 20260505010206 | 25 | 135 | 4.8 | 12.9 | 0.00 | 3.38 | 3.38 | 99 | 1012.2 |
| 20260505005702 | 25 | 217 | 0.0 | 14.5 | 0.00 | 3.38 | 3.38 | 99 | 1012.0 |
| 20260505005159 | 25 | 123 | 0.0 | 8.0 | 0.00 | 3.38 | 3.38 | 99 | 1012.1 |
| 20260505004656 | 25 | 246 | 1.6 | 16.1 | 0.00 | 3.38 | 3.38 | 99 | 1012.2 |
| 20260505004153 | 25 | 119 | 4.8 | 35.4 | 0.00 | 3.38 | 3.38 | 99 | 1012.0 |
| 20260505003650 | 25 | 212 | 0.0 | 9.7 | 0.00 | 3.38 | 3.38 | 99 | 1012.4 |
| 20260505003147 | 25 | 152 | 4.8 | 14.5 | 0.00 | 3.38 | 3.38 | 99 | 1012.4 |
| 20260505002644 | 25 | 153 | 6.4 | 11.3 | 0.00 | 3.38 | 3.38 | 99 | 1012.2 |
| 20260505002142 | 25 | 82 | 0.0 | 14.5 | 0.00 | 3.38 | 3.38 | 99 | 1012.4 |
| 20260505001638 | 25 | 90 | 0.0 | 12.9 | 0.00 | 3.38 | 3.38 | 99 | 1012.4 |
| 20260505001136 | 25 | 221 | 3.2 | 9.7 | 0.00 | 3.38 | 3.38 | 99 | 1012.5 |
| 20260505000633 | 26 | 217 | 11.3 | 29.0 | 0.00 | 3.38 | 3.38 | 99 | 1012.5 |
| 20260505000131 | 26 | 210 | 4.8 | 17.7 | 0.00 | 3.38 | 3.38 | 99 | 1012.4 |
| 20260504235627 | 26 | 131 | 0.0 | 14.5 | 0.00 | 3.38 | 3.38 | 99 | 1012.5 |
| 20260504235124 | 26 | 135 | 4.8 | 19.3 | 0.00 | 3.38 | 3.38 | 99 | 1012.4 |
| 20260504234621 | 26 | 175 | 8.0 | 11.3 | 0.00 | 3.38 | 3.38 | 99 | 1012.4 |
| 20260504234118 | 26 | 195 | 1.6 | 9.7 | 0.00 | 3.38 | 3.38 | 99 | 1012.6 |
| 20260504233613 | 26 | 218 | 4.8 | 17.7 | 0.00 | 3.38 | 3.38 | 99 | 1012.6 |
| 20260504233110 | 26 | 202 | 4.8 | 20.9 | 0.00 | 3.38 | 3.38 | 99 | 1012.5 |
| 20260504232607 | 26 | 142 | 4.8 | 14.5 | 0.00 | 3.38 | 3.38 | 99 | 1012.6 |
| 20260504232105 | 26 | 248 | 14.5 | 14.5 | 0.00 | 3.38 | 3.38 | 99 | 1012.6 |
| 20260504231601 | 26 | 173 | 1.6 | 30.6 | 0.00 | 3.38 | 3.38 | 99 | 1012.7 |
| 20260504231057 | 26 | 216 | 3.2 | 12.9 | 0.00 | 3.38 | 3.38 | 99 | 1012.7 |
| 20260504230553 | 26 | 147 | 4.8 | 14.5 | 0.00 | 3.38 | 3.38 | 99 | 1013.0 |
| 20260504230053 | 27 | 211 | 6.4 | 19.3 | 20.27 | 3.38 | 3.38 | 99 | 1012.9 |
| 20260504225549 | 27 | 203 | 24.1 | 24.1 | 20.27 | 3.38 | 3.38 | 99 | 1012.7 |
| 20260504225046 | 27 | 147 | 6.4 | 16.1 | 0.00 | 0.00 | 0.00 | 99 | 1013.0 |
| 20260504224543 | 27 | 84 | 4.8 | 12.9 | 0.00 | 0.00 | 0.00 | 99 | 1013.1 |
| 20260504224040 | 26 | 0 | 1.6 | 20.9 | 0.00 | 0.00 | 0.00 | 99 | 1013.2 |
| 20260504223537 | 27 | 103 | 4.8 | 11.3 | 0.00 | 0.00 | 0.00 | 99 | 1013.2 |
| 20260504223033 | 27 | 211 | 24.1 | 24.1 | 0.00 | 0.00 | 0.00 | 99 | 1012.9 |
| 20260504222530 | 27 | 176 | 3.2 | 22.5 | 0.00 | 0.00 | 0.00 | 99 | 1013.0 |
| 20260504222027 | 27 | 251 | 8.0 | 17.7 | 0.00 | 0.00 | 0.00 | 99 | 1013.1 |
| 20260504221524 | 27 | 235 | 6.4 | 14.5 | 0.00 | 0.00 | 0.00 | 99 | 1013.1 |
| 20260504221021 | 27 | 125 | 11.3 | 11.3 | 0.00 | 0.00 | 0.00 | 99 | 1013.2 |
| 20260504220518 | 27 | 249 | 0.0 | 17.7 | 0.00 | 0.00 | 0.00 | 99 | 1013.2 |
| 20260504220015 | 27 | 256 | 4.8 | 8.0 | 0.00 | 0.00 | 0.00 | 99 | 1013.3 |
| 20260504215511 | 27 | 159 | 4.8 | 11.3 | 0.00 | 0.00 | 0.00 | 99 | 1013.3 |
| 20260504215009 | 28 | 278 | 1.6 | 8.0 | 0.00 | 0.00 | 0.00 | 99 | 1013.5 |
| 20260504214504 | 27 | 128 | 3.2 | 20.9 | 0.00 | 0.00 | 0.00 | 99 | 1013.5 |
| 20260504214001 | 27 | 141 | 4.8 | 17.7 | 0.00 | 0.00 | 0.00 | 99 | 1013.6 |
| 20260504213457 | 27 | 174 | 1.6 | 19.3 | 0.00 | 0.00 | 0.00 | 99 | 1013.7 |
| 20260504212955 | 27 | 158 | 4.8 | 9.7 | 0.00 | 0.00 | 0.00 | 99 | 1013.7 |
| 20260504212450 | 27 | 111 | 0.0 | 16.1 | 0.00 | 0.00 | 0.00 | 99 | 1013.4 |
| 20260504211948 | 27 | 160 | 6.4 | 11.3 | 0.00 | 0.00 | 0.00 | 99 | 1014.1 |
| 20260504211444 | 27 | 240 | 4.8 | 20.9 | 0.00 | 0.00 | 0.00 | 99 | 1014.0 |
| 20260504210942 | 27 | 96 | 4.8 | 19.3 | 0.00 | 0.00 | 0.00 | 99 | 1014.0 |
| 20260504210438 | 27 | 145 | 6.4 | 9.7 | 0.00 | 0.00 | 0.00 | 99 | 1014.2 |
| 20260504205936 | 27 | 124 | 8.0 | 12.9 | 0.00 | 0.00 | 0.00 | 99 | 1014.4 |
| 20260504205433 | 28 | 153 | 6.4 | 14.5 | 0.00 | 0.00 | 0.00 | 99 | 1014.3 |
| 20260504204931 | 27 | 236 | 6.4 | 19.3 | 0.00 | 0.00 | 0.00 | 99 | 1014.4 |
| 20260504204429 | 27 | 134 | 6.4 | 17.7 | 0.00 | 0.00 | 0.00 | 99 | 1014.6 |
| 20260504203928 | 27 | 151 | 4.8 | 19.3 | 0.00 | 0.00 | 0.00 | 99 | 1014.5 |
| 20260504203425 | 27 | 96 | 3.2 | 12.9 | 0.00 | 0.00 | 0.00 | 99 | 1014.8 |
| 20260504202921 | 27 | 192 | 0.0 | 22.5 | 0.00 | 0.00 | 0.00 | 99 | 1015.0 |
| 20260504202418 | 27 | 184 | 3.2 | 20.9 | 0.00 | 0.00 | 0.00 | 99 | 1014.9 |
| 20260504201915 | 27 | 220 | 0.0 | 25.7 | 0.00 | 0.00 | 0.00 | 99 | 1015.0 |
| 20260504201412 | 27 | 134 | 8.0 | 19.3 | 0.00 | 0.00 | 0.00 | 99 | 1015.0 |